Location: Houhaj�rvi
(61.2667°N, 23.0167°E)
Time: 19:07:57
(UTC+00:00)

COSMOS 2455 - Pass Details

Date: 13 December 2019
Orbit: 903 x 907 km, 67.1° (Epoch: 17 January)

Event Time Altitude Azimuth Distance (km) Brightness Sun altitude
Rises 18:01:07 0° 291° (WNW) 3,543 7.0 -32.0°
Reaches altitude 10° 18:03:42 10° 297° (WNW) 2,601 6.0 -32.3°
Enters shadow 18:08:24 46° 335° (NNW) 1,208 3.6 -32.9°
